Location: Cactus School
(34.5700°N, 118.0931°W)
Time: 19:58:17
(UTC-07:00)

Transit 2A - All Passes

Search period start: 21 April 2024 00:00
Search period end: 01 May 2024 00:00
Orbit: 596 x 956 km, 66.7° (Epoch: 21 April)

Date Brightness Start Highest point End Pass type
(mag) Time Alt. Az. Time Alt. Az. Time Alt. Az.
21 Apr - 05:35:02 10° SSE 05:38:09 20° ESE 05:41:23 10° ENE visible
21 Apr - 07:17:04 10° WSW 07:20:56 31° NW 07:25:01 10° N daylight
21 Apr - 14:23:49 10° NNE 14:26:27 13° NE 14:29:10 10° ENE daylight
21 Apr - 16:04:30 10° NNW 16:10:14 85° ENE 16:16:26 10° SSE daylight
21 Apr - 17:50:37 10° W 17:52:48 12° WSW 17:55:00 10° SW daylight
22 Apr - 05:01:51 10° ESE 05:03:16 11° ESE 05:04:42 10° E visible
22 Apr - 06:41:30 10° SW 06:45:42 50° WNW 06:50:11 10° NNE daylight
22 Apr - 15:29:28 10° NNW 15:35:05 58° ENE 15:41:08 10° SE daylight
22 Apr - 17:13:50 10° WNW 17:17:52 19° WSW 17:22:03 10° SSW daylight
23 Apr - 06:06:14 10° SSW 06:10:33 85° WNW 06:15:09 10° NNE daylight
23 Apr - 14:54:34 10° N 14:59:53 39° ENE 15:05:35 10° SE daylight
23 Apr - 16:37:56 10° NW 16:42:53 29° WSW 16:48:07 10° SSW daylight
24 Apr - 05:31:15 10° S 05:35:29 56° ESE 05:39:57 10° NE visible
24 Apr - 07:16:48 10° WNW 07:19:00 13° NW 07:21:17 10° NNW daylight
24 Apr - 14:19:49 10° N 14:24:37 27° NE 14:29:43 10° ESE daylight
24 Apr - 16:02:23 10° NW 16:07:52 44° WSW 16:13:41 10° S daylight
25 Apr - 04:56:37 10° S 05:00:28 32° ESE 05:04:31 10° NE visible
25 Apr - 06:40:18 10° WSW 06:43:36 20° NW 06:47:05 10° N daylight
25 Apr - 13:45:17 10° N 13:49:16 19° NE 13:53:28 10° E daylight
25 Apr - 15:27:02 10° NNW 15:32:47 66° WSW 15:38:56 10° SSE daylight
26 Apr - 04:22:25 10° SSE 04:25:32 19° ESE 04:28:45 10° ENE visible
26 Apr - 06:04:22 10° WSW 06:08:18 31° WNW 06:12:26 10° N daylight
26 Apr - 13:11:12 10° NNE 13:13:51 13° NE 13:16:36 10° ENE daylight
26 Apr - 14:51:52 10° NNW 14:57:41 84° ENE 15:03:53 10° SSE daylight
26 Apr - 16:37:52 10° W 16:40:14 12° WSW 16:42:38 10° SW daylight
27 Apr - 03:49:17 10° ESE 03:50:38 11° ESE 03:52:00 10° E visible
27 Apr - 05:28:49 10° SW 05:33:03 51° WNW 05:37:34 10° NNE visible
27 Apr - 14:16:50 10° NNW 14:22:30 57° ENE 14:28:35 10° SE daylight
27 Apr - 16:01:09 10° WNW 16:05:18 20° WSW 16:09:35 10° SSW daylight
28 Apr - 04:53:33 10° SSW 04:57:54 87° WNW 05:02:32 10° NNE visible
28 Apr - 13:41:55 10° N 13:47:17 39° ENE 13:53:00 10° SE daylight
28 Apr - 15:25:16 10° NW 15:30:18 30° WSW 15:35:36 10° SSW daylight
29 Apr - 04:18:35 10° S 04:22:49 55° ESE 04:27:19 10° NE visible
29 Apr - 06:03:59 10° W 06:06:20 14° NW 06:08:45 10° NNW daylight
29 Apr - 13:07:11 10° N 13:12:01 27° NE 13:17:07 10° ESE daylight
29 Apr - 14:49:43 10° NW 14:55:16 45° WSW 15:01:09 10° S daylight
30 Apr - 03:43:57 10° S 03:47:48 32° ESE 03:51:52 10° NE visible
30 Apr - 05:27:32 10° WSW 05:30:55 21° NW 05:34:29 10° N visible
30 Apr - 12:32:38 10° N 12:36:39 19° NE 12:40:51 10° E daylight
30 Apr - 14:14:23 10° NNW 14:20:11 68° WSW 14:26:22 10° SSE daylight
